QPF
0.12 0.11 0.09 0.04 0.03 0.06 0.10 0.09 0.03 0.00 0.00 0.00 0.00 0.01 0.00 0.01 0.00 0.00 0.00 0.00 0.00 0.00 0.00 0.00 0.00 0.00 0.00 0.00 0.00 0.00 0.00 0.00 0.00 0.00 0.00 0.00 0.00 0.00 0.00 0.00 0.00 0.00 0.00 0.00 0.00
0.07 0.06 0.09 0.09 0.02 0.04 0.05 0.09 0.08 0.00 0.00 0.00 0.00 0.00 0.02 0.04 0.01 0.00 0.00 0.00 0.00 0.00 0.00 0.00 0.00 0.00 0.00 0.00 0.00 0.00 0.00 0.00 0.00 0.00 0.00 0.00 0.00 0.00 0.00 0.00 0.00 0.00 0.00 0.00 0.00
0.03 0.06 0.03 0.04 0.02 0.05 0.09 0.11 0.09 0.02 0.00 0.00 0.00 0.00 0.05 0.02 0.00 0.00 0.00 0.00 0.00 0.00 0.00 0.00 0.00 0.00 0.00 0.00 0.00 0.00 0.00 0.00 0.00 0.00 0.00 0.00 0.00 0.00 0.00 0.00 0.00 0.00 0.00 0.00 0.00
0.02 0.05 0.01 0.00 0.02 0.04 0.06 0.07 0.08 0.06 0.00 0.00 0.00 0.02 0.05 0.02 0.00 0.00 0.00 0.00 0.00 0.00 0.00 0.00 0.00 0.00 0.00 0.00 0.00 0.00 0.00 0.00 0.00 0.00 0.00 0.00 0.00 0.00 0.00 0.00 0.00 0.00 0.00 0.00 0.00
0.03 0.03 0.03 0.03 0.01 0.01 0.01 0.02 0.09 0.08 0.00 0.00 0.00 0.06 0.04 0.00 0.00 0.00 0.00 0.00 0.00 0.00 0.00 0.00 0.00 0.00 0.00 0.00 0.00 0.00 0.00 0.00 0.00 0.00 0.00 0.00 0.00 0.00 0.00 0.00 0.00 0.00 0.00 0.00 0.00
0.04 0.01 0.00 0.00 0.00 0.00 0.01 0.02 0.09 0.09 0.01 0.00 0.00 0.02 0.02 0.00 0.00 0.00 0.01 0.00 0.00 0.00 0.00 0.00 0.00 0.00 0.00 0.00 0.00 0.00 0.00 0.00 0.00 0.00 0.00 0.00 0.00 0.00 0.00 0.00 0.00 0.00 0.00 0.00 0.00
0.02 0.05 0.01 0.00 0.00 0.01 0.02 0.01 0.04 0.08 0.01 0.00 0.00 0.00 0.02 0.01 0.00 0.01 0.00 0.00 0.00 0.00 0.00 0.00 0.00 0.00 0.00 0.00 0.00 0.00 0.00 0.00 0.00 0.00 0.00 0.00 0.00 0.00 0.00 0.00 0.00 0.00 0.00 0.00 0.00
0.01 0.01 0.00 0.00 0.00 0.03 0.03 0.00 0.00 0.04 0.02 0.00 0.00 0.00 0.01 0.00 0.00 0.01 0.00 0.00 0.00 0.00 0.00 0.00 0.00 0.00 0.00 0.00 0.00 0.00 0.00 0.00 0.00 0.00 0.00 0.00 0.00 0.00 0.00 0.00 0.00 0.00 0.00 0.00 0.00
0.02 0.01 0.00 0.00 0.00 0.01 0.00 0.00 0.00 0.00 0.01 0.00 0.00 0.00 0.00 0.01 0.01 0.00 0.00 0.00 0.00 0.00 0.00 0.00 0.00 0.00 0.00 0.00 0.00 0.00 0.00 0.00 0.00 0.00 0.00 0.00 0.00 0.00 0.00 0.00 0.00 0.00 0.00 0.00 0.00
0.00 0.00 0.00 0.00 0.00 0.00 0.00 0.00 0.00 0.00 0.00 0.00 0.00 0.00 0.00 0.00 0.00 0.00 0.00 0.00 0.00 0.00 0.00 0.00 0.00 0.00 0.00 0.00 0.00 0.00 0.00 0.00 0.00 0.00 0.00 0.00 0.00 0.00 0.00 0.00 0.00 0.00 0.00 0.00 0.00
0.00 0.00 0.00 0.00 0.00 0.00 0.00 0.00 0.00 0.00 0.00 0.00 0.01 0.00 0.00 0.00 0.00 0.00 0.00 0.00 0.00 0.00 0.00 0.00 0.00 0.00 0.00 0.00 0.00 0.00 0.00 0.00 0.00 0.00 0.00 0.00 0.00 0.00 0.00 0.00 0.00 0.00 0.00 0.00 0.00
0.00 0.00 0.00 0.00 0.00 0.00 0.00 0.00 0.00 0.00 0.00 0.00 0.00 0.00 0.01 0.00 0.00 0.00 0.00 0.00 0.00 0.00 0.00 0.00 0.00 0.00 0.00 0.00 0.00 0.00 0.00 0.00 0.00 0.00 0.00 0.00 0.00 0.00 0.00 0.00 0.00 0.00 0.00 0.00 0.00
0.00 0.00 0.00 0.00 0.00 0.00 0.00 0.00 0.00 0.00 0.00 0.00 0.00 0.00 0.00 0.00 0.00 0.00 0.00 0.00 0.00 0.00 0.00 0.00 0.00 0.00 0.00 0.00 0.00 0.00 0.00 0.00 0.00 0.00 0.00 0.00 0.00 0.00 0.00 0.00 0.00 0.00 0.00 0.00 0.00
0.00 0.00 0.00 0.00 0.00 0.00 0.00 0.00 0.00 0.00 0.00 0.00 0.00 0.00 0.00 0.00 0.00 0.00 0.00 0.00 0.00 0.00 0.00 0.00 0.00 0.00 0.00 0.00 0.00 0.00 0.00 0.00 0.00 0.00 0.00 0.00 0.00 0.00 0.00 0.00 0.00 0.00 0.00 0.00 0.00
0.00 0.00 0.00 0.00 0.00 0.00 0.00 0.00 0.00 0.00 0.00 0.00 0.00 0.00 0.00 0.00 0.00 0.00 0.00 0.00 0.00 0.00 0.00 0.00 0.00 0.00 0.00 0.00 0.00 0.00 0.00 0.00 0.00 0.00 0.00 0.00 0.00 0.00 0.00 0.00 0.00 0.00 0.00 0.00 0.00
0.00 0.00 0.00 0.00 0.00 0.00 0.00 0.00 0.00 0.00 0.00 0.00 0.00 0.00 0.00 0.00 0.00 0.00 0.00 0.00 0.00 0.00 0.00 0.00 0.00 0.00 0.00 0.00 0.00 0.00 0.00 0.00 0.00 0.00 0.00 0.00 0.00 0.00 0.00 0.00 0.00 0.00 0.00 0.00 0.00
0.00 0.00 0.00 0.00 0.00 0.00 0.00 0.00 0.00 0.00 0.00 0.00 0.01 0.00 0.00 0.00 0.00 0.00 0.00 0.00 0.00 0.00 0.00 0.00 0.00 0.00 0.00 0.00 0.00 0.00 0.00 0.00 0.00 0.00 0.00 0.00 0.00 0.00 0.00 0.00 0.00 0.00 0.00 0.00 0.00
0.00 0.00 0.00 0.00 0.00 0.00 0.00 0.00 0.00 0.00 0.01 0.00 0.00 0.00 0.00 0.00 0.00 0.00 0.00 0.00 0.00 0.00 0.00 0.00 0.00 0.00 0.00 0.00 0.00 0.00 0.00 0.00 0.00 0.00 0.00 0.00 0.00 0.00 0.00 0.00 0.00 0.00 0.00 0.00 0.00
0.00 0.00 0.00 0.00 0.00 0.00 0.00 0.00 0.00 0.00 0.00 0.00 0.00 0.00 0.00 0.00 0.00 0.00 0.00 0.00 0.00 0.00 0.00 0.00 0.00 0.00 0.00 0.00 0.00 0.00 0.00 0.00 0.00 0.00 0.00 0.00 0.00 0.00 0.00 0.00 0.00 0.00 0.00 0.00 0.00
0.00 0.00 0.00 0.00 0.00 0.00 0.00 0.00 0.00 0.00 0.00 0.00 0.00 0.00 0.00 0.00 0.00 0.00 0.00 0.00 0.00 0.00 0.00 0.00 0.00 0.00 0.00 0.00 0.00 0.00 0.00 0.00 0.00 0.00 0.00 0.00 0.00 0.00 0.00 0.00 0.00 0.00 0.00 0.00 0.00
0.00 0.00 0.00 0.00 0.00 0.00 0.00 0.00 0.00 0.00 0.00 0.00 0.00 0.00 0.00 0.00 0.00 0.00 0.00 0.00 0.00 0.00 0.00 0.00 0.00 0.00 0.00 0.00 0.00 0.00 0.00 0.00 0.00 0.00 0.00 0.00 0.00 0.00 0.00 0.00 0.00 0.00 0.00 0.00 0.00
0.00 0.00 0.00 0.00 0.00 0.00 0.00 0.00 0.00 0.00 0.00 0.00 0.00 0.00 0.00 0.00 0.00 0.00 0.00 0.00 0.00 0.00 0.00 0.00 0.00 0.00 0.00 0.00 0.00 0.00 0.00 0.00 0.00 0.00 0.00 0.00 0.00 0.00 0.00 0.00 0.00 0.00 0.00 0.00 0.00
0.00 0.00 0.00 0.00 0.00 0.00 0.00 0.00 0.00 0.00 0.00 0.00 0.00 0.00 0.00 0.00 0.00 0.00 0.00 0.00 0.00 0.00 0.00 0.00 0.00 0.00 0.00 0.00 0.00 0.00 0.00 0.00 0.00 0.00 0.00 0.00 0.00 0.00 0.00 0.00 0.00 0.00 0.00 0.00 0.00
0.00 0.00 0.00 0.00 0.00 0.00 0.00 0.00 0.00 0.00 0.00 0.00 0.00 0.00 0.00 0.00 0.00 0.00 0.00 0.00 0.00 0.00 0.00 0.00 0.00 0.00 0.00 0.00 0.00 0.00 0.00 0.00 0.00 0.00 0.00 0.00 0.00 0.00 0.00 0.00 0.00 0.00 0.00 0.00 0.00
0.00 0.00 0.00 0.00 0.00 0.00 0.00 0.00 0.00 0.00 0.00 0.00 0.00 0.00 0.00 0.00 0.00 0.00 0.00 0.00 0.00 0.00 0.00 0.00 0.00 0.00 0.00 0.00 0.00 0.00 0.00 0.00 0.00 0.00 0.00 0.00 0.00 0.00 0.00 0.00 0.00 0.00 0.00 0.00 0.00
0.00 0.00 0.00 0.00 0.00 0.00 0.00 0.00 0.00 0.00 0.00 0.00 0.00 0.00 0.00 0.00 0.00 0.00 0.00 0.00 0.00 0.00 0.00 0.00 0.00 0.00 0.00 0.00 0.00 0.00 0.00 0.00 0.00 0.00 0.00 0.00 0.00 0.00 0.00 0.00 0.00 0.00 0.00 0.00 0.00
0.00 0.00 0.00 0.00 0.00 0.00 0.00 0.00 0.00 0.00 0.00 0.00 0.00 0.00 0.00 0.00 0.00 0.00 0.00 0.00 0.00 0.00 0.00 0.00 0.00 0.00 0.00 0.00 0.00 0.00 0.00 0.00 0.00 0.00 0.00 0.00 0.00 0.00 0.00 0.00 0.00 0.00 0.00 0.00 0.00
MSLP
1012.50 1012.76 1012.95 1013.04 1013.26 1013.58 1013.85 1013.59 1013.70 1013.92 1013.98 1013.96 1014.07 1013.72 1014.33 1014.10 1014.24 1014.73 1014.61 1014.24 1014.06 1013.74 1013.91 1013.77 1013.70 1013.89 1014.18 1014.99 1015.30 1015.67 1016.92 1017.98 1017.95 1017.71 1017.65 1017.39 1017.39 1017.33 1017.32 1017.39 1017.22 1017.27 1017.72 1018.14 1018.09
1012.56 1012.71 1012.79 1013.23 1013.29 1013.75 1014.07 1014.01 1013.90 1013.87 1014.00 1014.03 1014.15 1014.19 1014.05 1013.91 1014.55 1014.85 1014.48 1013.98 1013.89 1013.91 1014.15 1014.16 1014.04 1014.03 1014.79 1015.43 1015.88 1016.29 1017.57 1018.18 1018.15 1017.89 1017.74 1017.76 1017.79 1017.81 1017.80 1017.94 1017.81 1017.80 1018.09 1018.27 1018.27
1012.78 1012.85 1013.01 1013.18 1013.40 1013.43 1014.00 1013.97 1013.95 1013.83 1014.09 1014.17 1014.15 1013.99 1013.67 1014.42 1014.89 1015.02 1014.41 1014.05 1014.04 1014.13 1014.36 1014.44 1014.21 1014.17 1015.16 1015.72 1016.52 1016.88 1017.65 1018.21 1018.52 1018.18 1018.04 1018.18 1018.23 1018.20 1018.12 1018.29 1018.31 1018.39 1018.23 1018.15 1018.30
1013.26 1013.26 1013.32 1013.36 1013.48 1013.60 1013.67 1013.89 1014.01 1013.98 1014.30 1014.39 1014.21 1014.09 1014.30 1014.57 1015.86 1015.35 1014.71 1014.11 1014.19 1014.26 1014.44 1014.28 1014.48 1014.85 1015.60 1016.37 1016.91 1017.33 1018.01 1018.10 1018.65 1018.66 1018.47 1018.71 1018.73 1018.64 1018.54 1018.26 1018.22 1018.17 1018.09 1018.09 1018.34
1013.85 1013.81 1013.88 1013.85 1013.82 1013.85 1013.92 1013.98 1014.11 1014.27 1014.46 1014.62 1014.40 1014.24 1014.81 1015.20 1015.81 1015.24 1015.07 1014.36 1014.32 1014.42 1014.51 1014.44 1014.76 1015.30 1015.92 1016.49 1017.01 1017.68 1018.28 1018.54 1018.75 1018.83 1018.85 1018.94 1019.15 1019.09 1018.63 1018.26 1018.28 1018.17 1018.16 1018.43 1018.91
1014.36 1014.37 1014.35 1014.30 1014.19 1014.03 1014.06 1014.19 1014.41 1014.65 1014.73 1014.78 1014.60 1014.74 1014.98 1015.76 1015.98 1015.39 1015.56 1014.69 1014.51 1014.53 1014.57 1014.57 1015.01 1015.25 1016.18 1016.91 1017.28 1017.88 1018.42 1018.95 1018.94 1018.98 1019.09 1019.33 1019.52 1019.36 1018.54 1018.03 1018.29 1018.31 1018.59 1018.98 1019.45
1015.06 1014.92 1014.83 1014.80 1014.69 1014.61 1014.62 1014.51 1014.81 1014.93 1014.92 1014.95 1014.86 1015.01 1015.39 1016.39 1016.13 1015.86 1015.22 1015.22 1014.68 1014.69 1014.93 1014.91 1014.91 1015.40 1016.54 1017.53 1017.97 1018.30 1018.99 1019.35 1019.32 1019.28 1019.56 1019.52 1019.62 1019.41 1018.69 1018.50 1018.58 1018.78 1019.05 1019.60 1019.94
1015.39 1015.42 1015.33 1015.25 1015.22 1015.15 1015.05 1014.71 1015.12 1015.23 1015.16 1015.10 1015.02 1015.31 1016.11 1016.76 1016.40 1016.31 1015.60 1015.57 1015.07 1014.86 1015.02 1015.10 1015.00 1015.99 1017.20 1018.12 1018.55 1019.14 1019.47 1019.86 1019.70 1019.59 1019.87 1019.87 1019.53 1018.88 1018.77 1018.97 1019.15 1019.40 1019.50 1020.01 1020.35
1016.01 1015.93 1015.86 1015.82 1015.72 1015.55 1015.51 1015.35 1015.59 1015.46 1015.35 1015.13 1015.54 1015.68 1016.87 1016.77 1016.78 1017.10 1017.00 1016.37 1015.82 1015.47 1015.35 1015.27 1015.54 1017.39 1018.16 1019.06 1019.98 1020.43 1020.33 1020.20 1019.91 1019.79 1020.02 1020.23 1019.80 1019.14 1019.10 1019.15 1019.32 1019.65 1019.94 1020.22 1020.54
1016.57 1016.45 1016.22 1016.06 1015.83 1015.75 1015.87 1015.87 1015.84 1015.88 1015.91 1015.59 1015.90 1016.63 1017.54 1017.65 1017.51 1017.59 1017.14 1016.74 1016.52 1016.30 1016.33 1016.68 1017.54 1018.39 1019.38 1019.75 1020.79 1020.81 1020.64 1020.37 1020.14 1020.19 1020.18 1020.25 1019.84 1019.41 1019.16 1019.31 1019.24 1019.59 1020.09 1020.41 1020.68
1016.88 1016.77 1016.63 1016.24 1016.21 1016.17 1016.20 1016.36 1016.88 1017.45 1017.68 1017.70 1017.72 1017.71 1018.10 1018.16 1017.85 1017.84 1017.66 1017.17 1016.86 1017.08 1017.86 1018.25 1019.02 1019.51 1019.98 1019.89 1020.00 1020.19 1020.34 1020.51 1020.30 1020.22 1020.35 1020.24 1019.88 1019.52 1018.98 1019.05 1019.22 1019.84 1020.30 1020.62 1020.79
1017.12 1016.99 1016.77 1016.59 1016.48 1016.50 1016.72 1017.39 1017.99 1018.18 1018.77 1018.80 1018.52 1018.64 1018.96 1019.05 1018.01 1017.49 1016.86 1017.22 1017.37 1018.14 1018.50 1019.28 1020.05 1020.09 1020.02 1019.98 1020.06 1020.15 1020.46 1020.65 1020.60 1020.51 1020.70 1020.50 1019.64 1019.04 1018.67 1018.45 1018.78 1019.71 1020.48 1020.68 1020.83
1017.26 1017.16 1017.13 1016.98 1016.87 1017.15 1017.56 1018.09 1018.13 1018.02 1019.10 1019.88 1019.89 1019.90 1019.87 1019.58 1019.05 1017.94 1017.31 1017.37 1018.43 1018.84 1019.17 1019.76 1020.41 1020.13 1020.15 1020.23 1020.28 1020.66 1020.74 1020.92 1021.08 1021.00 1021.04 1020.96 1019.99 1019.05 1018.68 1018.62 1019.00 1019.78 1020.41 1020.77 1020.97
1017.53 1017.41 1017.25 1017.19 1017.45 1018.08 1018.12 1018.17 1018.21 1018.30 1019.54 1021.22 1020.66 1020.59 1020.19 1019.66 1019.24 1018.33 1017.87 1017.83 1018.37 1019.53 1019.90 1020.59 1020.56 1020.39 1020.32 1020.41 1020.45 1020.90 1020.89 1021.11 1021.57 1021.89 1022.26 1021.94 1021.29 1019.63 1019.17 1019.18 1019.48 1020.11 1020.59 1020.96 1021.17
1017.74 1017.73 1017.61 1017.43 1018.11 1018.38 1018.33 1018.23 1018.42 1018.59 1020.03 1021.90 1021.10 1020.75 1020.00 1019.87 1020.09 1018.24 1017.72 1017.78 1018.73 1019.47 1020.13 1021.35 1020.85 1020.58 1020.47 1020.53 1020.48 1021.01 1021.09 1021.41 1021.93 1022.69 1023.18 1022.97 1022.66 1019.68 1019.39 1019.41 1019.44 1020.08 1020.67 1021.01 1021.19
1017.84 1017.80 1017.80 1018.02 1018.41 1018.51 1018.37 1018.49 1018.71 1019.31 1021.12 1021.45 1021.03 1020.61 1019.86 1019.51 1019.25 1018.95 1018.30 1018.26 1018.85 1019.98 1020.57 1021.09 1020.84 1020.62 1020.44 1020.48 1020.54 1020.89 1021.52 1022.11 1022.77 1023.53 1023.82 1023.31 1022.93 1020.24 1019.48 1018.82 1019.16 1019.87 1020.50 1020.91 1021.09
1017.88 1017.72 1017.69 1017.84 1018.36 1018.19 1018.36 1018.73 1019.12 1019.94 1021.95 1021.55 1020.98 1020.29 1019.83 1019.78 1019.08 1018.88 1018.76 1018.85 1019.34 1020.51 1021.79 1021.48 1021.29 1020.80 1020.47 1020.70 1020.86 1021.16 1022.30 1023.37 1024.13 1024.41 1024.45 1023.46 1022.94 1019.84 1018.64 1018.65 1018.95 1019.67 1020.40 1020.72 1020.91
1017.99 1017.93 1018.07 1017.99 1018.13 1018.12 1018.56 1019.02 1019.48 1021.07 1020.77 1020.94 1020.55 1020.18 1019.74 1019.56 1019.20 1019.14 1019.17 1019.38 1019.54 1020.21 1021.59 1021.95 1021.91 1020.98 1020.57 1020.54 1020.96 1021.43 1022.38 1023.55 1024.63 1025.41 1024.63 1023.57 1022.23 1019.25 1018.45 1018.65 1019.15 1019.65 1020.12 1020.58 1020.71
1018.10 1018.52 1018.59 1018.40 1018.30 1018.36 1018.86 1019.31 1020.37 1020.28 1020.09 1020.01 1020.08 1019.61 1019.37 1019.04 1019.00 1019.12 1019.21 1019.32 1019.44 1019.71 1020.64 1021.41 1021.50 1020.77 1020.48 1019.98 1020.50 1021.38 1022.14 1022.88 1024.10 1025.05 1025.13 1023.20 1021.19 1018.84 1018.76 1018.83 1019.19 1019.66 1020.12 1020.31 1020.39
1018.63 1018.82 1018.95 1018.53 1018.59 1018.92 1019.05 1019.55 1019.72 1019.33 1019.04 1019.24 1019.11 1018.70 1018.90 1018.88 1018.91 1018.94 1019.05 1019.03 1019.15 1019.22 1019.54 1020.38 1021.08 1020.91 1020.52 1020.32 1020.39 1020.76 1021.72 1022.89 1024.20 1025.11 1024.74 1022.87 1021.20 1019.05 1018.49 1018.22 1018.63 1019.22 1019.57 1019.74 1019.82
1018.89 1019.07 1018.83 1018.77 1018.89 1019.07 1020.17 1019.95 1019.32 1018.70 1018.47 1018.47 1018.25 1018.25 1018.48 1018.59 1018.74 1018.83 1019.03 1018.93 1018.83 1019.00 1019.21 1019.67 1020.23 1021.19 1020.86 1020.61 1020.42 1021.00 1021.49 1022.21 1023.04 1023.78 1023.85 1023.03 1019.98 1017.40 1017.36 1017.60 1018.10 1018.50 1018.82 1019.09 1019.31
1019.02 1019.58 1019.09 1019.01 1019.21 1020.06 1020.24 1019.62 1018.92 1018.48 1018.09 1017.93 1017.82 1017.84 1018.05 1018.16 1018.50 1018.68 1018.86 1018.75 1018.60 1018.81 1019.26 1019.64 1020.28 1021.03 1020.70 1020.12 1020.01 1020.40 1020.93 1021.64 1022.71 1023.18 1023.08 1022.52 1019.12 1016.65 1016.80 1017.08 1017.59 1017.99 1018.30 1018.60 1018.81
1019.11 1019.36 1019.22 1019.39 1019.92 1020.44 1019.64 1019.12 1018.69 1018.33 1018.06 1017.80 1017.85 1017.90 1017.83 1018.04 1018.41 1018.63 1018.88 1018.90 1018.92 1019.19 1019.62 1019.92 1020.58 1021.23 1021.19 1020.82 1020.33 1020.47 1020.60 1021.04 1021.89 1022.38 1022.38 1022.04 1018.47 1016.75 1016.82 1017.01 1017.27 1017.72 1017.93 1018.16 1018.44
1018.98 1019.57 1019.40 1019.38 1019.83 1019.65 1019.40 1019.03 1018.54 1018.14 1017.95 1017.76 1017.75 1017.69 1017.92 1018.07 1018.23 1018.74 1019.09 1019.22 1019.32 1019.65 1020.00 1020.31 1021.16 1021.60 1021.42 1020.72 1020.40 1020.47 1020.23 1020.46 1021.12 1021.88 1021.23 1019.44 1017.60 1016.52 1016.43 1016.59 1016.71 1017.00 1017.19 1017.44 1017.80
1019.11 1020.21 1019.97 1020.00 1019.83 1019.38 1019.12 1018.85 1018.58 1018.31 1018.06 1017.95 1018.09 1018.20 1018.35 1018.48 1018.64 1018.98 1019.28 1019.58 1019.77 1020.01 1020.44 1021.03 1021.73 1021.68 1021.14 1020.61 1020.27 1019.72 1019.50 1019.61 1019.83 1019.40 1019.72 1017.05 1016.62 1014.53 1014.90 1015.02 1015.18 1015.59 1016.29 1017.01 1017.17
1019.74 1020.03 1020.03 1019.86 1019.63 1019.26 1019.12 1018.79 1018.60 1018.50 1018.36 1018.31 1018.34 1018.43 1018.50 1018.73 1018.95 1019.21 1019.50 1019.97 1020.13 1020.61 1020.89 1021.35 1021.81 1021.95 1021.29 1020.20 1019.99 1019.36 1018.40 1018.30 1018.05 1017.86 1017.33 1016.41 1015.03 1013.79 1013.27 1013.89 1014.47 1014.89 1015.43 1015.89 1016.00
1020.00 1019.93 1020.00 1020.04 1019.79 1019.59 1019.02 1018.75 1018.55 1018.44 1018.37 1018.26 1018.42 1018.61 1018.70 1018.81 1019.02 1019.33 1019.69 1020.11 1020.33 1020.75 1021.30 1021.77 1022.24 1022.79 1021.71 1020.57 1019.58 1017.90 1015.35 1015.55 1015.97 1015.84 1015.57 1015.79 1012.07 1012.76 1012.78 1013.17 1013.40 1013.76 1014.27 1014.39 1014.41
Thickness
5457 5454 5454 5455 5460 5468 5472 5479 5482 5485 5493 5507 5521 5541 5541 5556 5570 5577 5586 5600 5611 5624 5631 5639 5645 5650 5653 5650 5655 5656 5635 5633 5643 5652 5652 5663 5661 5665 5670 5669 5674 5679 5675 5674 5677
5453 5451 5452 5449 5451 5455 5461 5467 5472 5477 5483 5495 5508 5522 5537 5553 5556 5564 5579 5593 5604 5615 5622 5629 5633 5641 5637 5639 5641 5637 5624 5635 5641 5645 5648 5650 5650 5653 5657 5655 5662 5666 5667 5668 5670
5450 5450 5449 5447 5448 5456 5459 5462 5466 5472 5476 5485 5498 5512 5530 5542 5544 5551 5568 5584 5594 5605 5614 5623 5632 5636 5630 5634 5632 5636 5628 5632 5632 5638 5643 5643 5646 5647 5650 5649 5653 5654 5659 5666 5667
5448 5446 5446 5446 5449 5453 5455 5456 5460 5467 5471 5478 5489 5503 5516 5534 5532 5538 5559 5576 5588 5597 5605 5617 5623 5623 5620 5620 5627 5623 5627 5631 5627 5630 5635 5634 5638 5640 5644 5651 5653 5655 5661 5663 5662
5443 5443 5442 5443 5447 5448 5449 5451 5456 5463 5468 5474 5485 5497 5505 5518 5524 5536 5548 5567 5580 5590 5598 5608 5613 5615 5612 5617 5621 5618 5621 5623 5623 5627 5630 5633 5631 5634 5640 5647 5650 5655 5658 5657 5653
5438 5439 5439 5440 5441 5442 5444 5448 5452 5458 5465 5472 5481 5487 5498 5508 5519 5533 5538 5558 5571 5584 5592 5603 5608 5614 5609 5612 5614 5617 5615 5614 5620 5624 5626 5625 5626 5629 5641 5648 5647 5652 5650 5647 5645
5432 5434 5435 5433 5430 5430 5435 5442 5447 5453 5462 5468 5477 5484 5491 5498 5510 5521 5536 5548 5566 5579 5586 5598 5607 5610 5608 5604 5610 5610 5606 5609 5613 5618 5617 5619 5623 5621 5634 5640 5642 5643 5640 5636 5635
5430 5432 5433 5430 5427 5426 5430 5438 5443 5449 5458 5466 5476 5483 5487 5491 5503 5520 5533 5542 5557 5571 5580 5591 5599 5597 5597 5599 5601 5601 5597 5596 5606 5611 5612 5615 5618 5631 5631 5630 5632 5632 5632 5628 5625
5427 5430 5431 5429 5425 5426 5429 5436 5441 5450 5457 5466 5472 5481 5481 5489 5501 5512 5516 5528 5544 5559 5571 5584 5591 5583 5586 5576 5558 5572 5565 5596 5602 5606 5607 5607 5613 5622 5626 5626 5625 5624 5624 5620 5616
5428 5429 5432 5433 5434 5433 5432 5436 5442 5449 5453 5462 5470 5474 5475 5484 5496 5505 5514 5524 5534 5547 5558 5566 5564 5565 5562 5557 5546 5571 5571 5596 5598 5600 5601 5602 5602 5613 5619 5621 5623 5619 5615 5613 5608
5432 5432 5433 5437 5437 5438 5439 5438 5438 5438 5441 5447 5454 5467 5471 5479 5491 5497 5509 5519 5533 5539 5540 5551 5543 5540 5565 5575 5577 5581 5584 5587 5594 5598 5597 5596 5600 5605 5615 5616 5618 5606 5604 5604 5600
5437 5436 5437 5439 5441 5441 5442 5436 5433 5438 5435 5443 5454 5464 5467 5472 5489 5502 5517 5520 5528 5526 5538 5530 5529 5555 5565 5572 5577 5582 5579 5581 5589 5595 5595 5595 5604 5611 5612 5615 5614 5604 5594 5593 5591
5449 5445 5442 5443 5445 5445 5442 5440 5442 5447 5440 5441 5448 5456 5465 5474 5481 5501 5515 5521 5519 5523 5528 5525 5541 5555 5560 5564 5571 5570 5572 5577 5572 5585 5589 5587 5596 5610 5612 5610 5606 5595 5587 5584 5581
5462 5456 5454 5452 5451 5447 5447 5449 5452 5455 5440 5435 5452 5459 5469 5475 5483 5501 5512 5521 5524 5514 5521 5522 5540 5549 5551 5559 5565 5562 5574 5576 5575 5561 5557 5577 5554 5591 5599 5599 5598 5586 5577 5574 5572
5476 5469 5465 5465 5458 5457 5459 5460 5461 5463 5438 5442 5453 5462 5475 5481 5478 5506 5518 5522 5520 5525 5526 5507 5534 5544 5550 5557 5564 5559 5570 5571 5572 5564 5547 5562 5529 5585 5593 5592 5593 5577 5570 5568 5565
5488 5484 5480 5475 5471 5471 5471 5471 5471 5451 5451 5457 5464 5471 5486 5492 5498 5504 5515 5523 5524 5518 5519 5523 5535 5543 5549 5554 5558 5562 5560 5560 5557 5541 5518 5554 5547 5575 5586 5595 5592 5577 5569 5565 5561
5501 5497 5494 5491 5485 5486 5484 5482 5469 5461 5453 5469 5472 5483 5490 5488 5506 5510 5516 5520 5518 5497 5483 5524 5531 5541 5548 5545 5552 5554 5527 5491 5515 5526 5520 5556 5549 5577 5594 5592 5588 5577 5565 5560 5557
5512 5507 5503 5501 5497 5495 5491 5482 5481 5477 5480 5479 5484 5491 5492 5502 5511 5515 5517 5513 5528 5516 5489 5479 5495 5536 5546 5549 5544 5550 5535 5502 5517 5521 5518 5550 5546 5579 5591 5582 5576 5571 5565 5559 5557
5524 5517 5511 5508 5505 5502 5496 5491 5474 5485 5493 5493 5494 5505 5507 5514 5518 5517 5519 5523 5530 5532 5516 5504 5508 5543 5545 5561 5557 5544 5528 5552 5522 5527 5515 5522 5559 5586 5576 5574 5567 5563 5560 5557 5555
5533 5526 5520 5518 5515 5510 5501 5499 5503 5511 5512 5508 5507 5517 5514 5518 5522 5524 5527 5534 5536 5543 5542 5537 5516 5543 5551 5557 5560 5557 5554 5537 5521 5521 5534 5528 5552 5572 5578 5584 5576 5566 5562 5561 5559
5542 5539 5534 5529 5525 5519 5492 5507 5521 5524 5524 5522 5524 5526 5524 5525 5527 5530 5531 5539 5543 5546 5550 5550 5544 5543 5550 5548 5551 5552 5546 5551 5541 5527 5519 5539 5561 5588 5593 5591 5583 5574 5570 5563 5559
5552 5543 5545 5541 5530 5514 5502 5530 5531 5533 5535 5535 5536 5537 5537 5537 5538 5535 5538 5543 5550 5552 5552 5552 5543 5523 5549 5559 5560 5557 5550 5549 5527 5544 5538 5535 5563 5600 5593 5588 5579 5574 5570 5564 5562
5565 5559 5554 5548 5532 5513 5546 5545 5543 5541 5543 5545 5543 5544 5548 5547 5543 5545 5544 5550 5554 5554 5553 5555 5545 5512 5536 5550 5561 5559 5559 5557 5546 5534 5537 5525 5562 5589 5582 5581 5575 5571 5566 5563 5560
5571 5557 5562 5556 5547 5558 5559 5556 5555 5555 5554 5556 5555 5555 5554 5555 5555 5552 5549 5554 5556 5554 5554 5552 5541 5540 5533 5558 5554 5556 5558 5558 5553 5515 5540 5553 5569 5587 5584 5577 5578 5571 5568 5563 5560
5573 5563 5567 5548 5565 5566 5566 5564 5563 5559 5561 5564 5561 5558 5557 5558 5559 5556 5555 5554 5556 5556 5554 5547 5537 5539 5547 5552 5558 5564 5568 5564 5557 5574 5561 5587 5574 5609 5600 5593 5592 5585 5573 5562 5558
5583 5577 5566 5567 5570 5577 5567 5570 5569 5566 5566 5565 5564 5561 5562 5561 5561 5557 5560 5553 5553 5551 5551 5544 5542 5543 5531 5562 5557 5555 5565 5573 5579 5581 5579 5588 5596 5611 5614 5591 5588 5582 5574 5570 5565
5579 5579 5579 5574 5574 5572 5571 5575 5575 5572 5573 5572 5570 5566 5567 5567 5563 5562 5557 5551 5557 5552 5546 5545 5536 5526 5539 5551 5553 5569 5595 5593 5587 5583 5595 5582 5618 5610 5606 5601 5592 5588 5576 5578 5575